Theta_e
324 321 320 322 324 323 322 316 304 306 303 297 296 299 299 307 307 306 304 306 302 299 302 303 304 302 304 298 297 298 298 295 294 291 291 303 313 318 317 317 318 318 318 319 321 322 323 324 326 327 326 325 325 325 324 324 325 324 324 323 323 322 323 323 322 322 322 321 321 321 321 321 320 320 319 319 318 318 319 319 320 321 321 320 320 320 320 320 322 322 322 321 322 322 322 319 319
322 318 319 322 322 320 313 311 302 301 298 295 297 300 301 304 306 303 303 304 302 300 302 302 302 302 302 302 303 304 301 300 302 300 306 313 317 316 316 316 318 316 318 320 320 322 322 321 324 324 324 324 324 325 325 325 324 323 323 321 321 321 320 320 320 320 320 320 319 320 319 318 318 317 318 317 317 317 318 318 319 319 319 319 320 319 320 321 321 321 321 322 320 322 320 318 319
320 318 318 321 320 317 313 310 299 295 294 292 295 299 304 304 304 303 303 302 301 302 300 299 299 298 299 301 298 299 296 303 304 309 308 314 310 312 314 317 317 316 316 317 319 320 321 321 323 323 323 323 323 323 323 322 322 321 320 320 320 320 320 319 319 319 319 318 318 317 317 316 316 316 316 316 316 316 317 318 318 319 319 319 319 319 320 319 319 320 321 320 321 321 321 318 318
322 322 316 318 315 316 306 303 298 296 293 294 296 303 303 304 300 300 302 302 301 301 300 298 296 299 298 295 295 303 298 299 304 304 307 309 311 313 315 314 315 316 317 317 318 319 321 321 322 323 323 323 322 322 322 321 320 319 319 319 319 318 319 317 317 317 316 316 317 317 317 316 317 316 317 316 315 317 318 318 318 318 318 318 319 319 319 319 319 320 321 319 320 319 319 318 318
321 325 323 318 313 306 306 300 298 297 295 296 297 302 306 304 302 301 301 300 298 300 302 298 295 298 301 298 299 296 297 300 307 309 308 311 313 313 313 314 314 314 314 314 315 317 318 321 321 321 322 322 321 320 320 321 319 318 318 317 316 316 315 315 316 315 316 316 317 316 317 316 315 316 316 315 316 316 317 317 317 317 317 318 318 318 318 318 318 319 318 320 318 319 318 318 317
323 323 324 319 311 316 309 300 297 297 301 302 300 302 303 308 302 299 296 297 298 298 300 298 296 294 296 299 301 298 302 300 305 308 310 310 311 315 313 313 312 311 313 314 317 318 318 321 321 321 321 320 320 320 318 318 318 317 316 316 315 314 315 315 315 315 315 316 316 315 315 316 315 315 315 315 314 316 318 317 317 316 317 317 316 317 317 318 318 317 317 317 317 318 317 317 316
321 320 318 319 313 313 301 297 297 298 301 305 297 293 295 298 300 297 296 298 300 299 300 297 299 298 295 298 303 305 308 305 306 307 311 311 313 312 312 311 310 311 312 314 318 318 318 321 320 320 321 320 320 319 318 318 317 317 316 316 314 315 315 315 314 314 314 314 315 315 314 316 316 314 315 315 316 316 317 317 316 316 317 316 316 317 317 316 315 318 317 316 318 317 316 316 315
324 314 313 307 301 304 298 297 298 299 298 299 292 292 294 294 302 300 298 300 294 293 296 300 300 297 295 303 296 305 308 309 308 311 310 309 309 308 309 308 309 309 310 311 312 315 317 320 320 320 320 318 317 317 317 317 316 315 315 314 315 316 315 314 313 314 313 316 316 315 315 315 315 314 314 314 314 314 314 315 315 317 315 315 315 316 315 315 316 316 316 316 316 315 315 315 314
316 314 312 308 301 300 295 298 298 298 292 292 289 291 293 293 297 296 293 294 294 296 296 297 297 296 296 298 297 302 304 307 308 308 307 308 307 307 307 307 307 307 307 307 309 312 315 318 319 319 319 319 317 317 316 315 314 314 314 315 314 314 314 315 316 316 317 316 315 314 314 314 314 315 314 314 313 313 313 313 314 314 313 313 313 314 314 313 313 313 314 314 314 313 313 312 312
314 313 306 302 301 297 293 294 295 295 291 291 288 287 289 291 292 295 295 294 294 295 296 300 298 297 299 295 298 301 303 307 306 305 306 306 305 304 303 304 304 304 303 303 305 309 312 314 317 317 317 317 315 315 313 313 314 314 313 312 314 314 314 314 315 315 314 314 313 312 313 313 313 313 313 313 313 313 313 313 313 313 312 312 311 312 312 312 312 312 313 313 313 312 312 312 311
304 303 307 300 291 293 293 293 292 291 290 289 289 289 289 291 291 290 290 290 291 292 293 296 297 296 297 295 297 306 307 306 303 301 303 301 301 301 300 300 301 301 300 301 302 305 307 311 313 315 315 315 314 314 312 313 312 311 312 313 313 313 312 313 312 312 310 310 310 310 310 310 311 311 312 311 312 311 312 311 312 312 312 311 311 312 313 312 312 312 312 312 312 311 311 310 310
299 301 299 290 289 292 291 293 292 289 290 287 287 289 290 291 290 289 290 292 292 293 292 294 295 300 295 295 297 302 303 302 301 301 300 298 296 296 295 296 296 297 298 298 299 299 301 304 307 311 314 314 312 313 312 312 311 310 311 311 311 311 310 310 309 308 307 306 306 307 308 307 308 309 309 311 310 310 311 311 311 311 310 311 311 312 312 311 311 311 312 311 311 309 308 308 308
302 298 295 293 291 292 291 290 289 290 287 286 285 288 291 290 288 289 288 288 289 293 293 293 300 296 293 294 299 300 297 297 297 297 297 295 295 295 295 294 295 295 296 297 296 296 297 297 299 302 306 310 310 310 310 310 309 310 309 309 308 308 307 307 306 305 305 304 303 303 304 304 304 305 307 308 308 308 308 309 310 309 310 310 310 310 310 311 311 310 310 309 308 306 306 305 306
302 299 297 295 289 289 289 289 289 287 286 287 287 289 289 287 287 288 290 287 285 288 290 291 295 299 293 296 296 293 294 295 296 295 295 294 294 294 293 293 293 294 294 295 294 294 294 294 295 295 296 297 298 304 307 307 307 307 306 306 305 305 305 305 304 303 302 301 300 299 299 300 300 301 303 304 306 305 304 306 308 308 308 308 308 309 309 309 309 309 308 307 306 304 303 303 304
303 296 292 289 286 288 289 288 288 287 286 287 289 286 287 287 288 287 286 286 286 287 288 292 287 292 292 294 292 293 294 294 295 294 294 293 293 292 292 292 292 292 293 293 293 293 293 293 293 293 294 294 294 295 298 302 304 303 304 303 303 302 302 301 301 300 299 298 297 295 294 295 296 297 298 300 302 302 301 301 305 307 306 305 305 306 307 307 307 306 306 304 303 301 301 301 301
299 294 291 290 287 287 288 286 285 286 285 287 287 288 287 287 288 286 286 287 285 288 288 286 289 287 297 295 295 295 295 294 294 294 292 292 292 292 291 291 290 290 291 291 291 292 292 291 292 292 291 292 292 293 293 295 299 301 300 300 299 299 298 297 296 295 295 293 293 292 291 288 290 290 294 293 297 298 298 298 301 304 304 303 302 302 303 304 304 303 302 301 300 298 297 297 297
295 295 291 284 287 285 288 286 287 286 285 287 285 285 286 284 287 287 289 289 285 284 285 285 285 289 287 292 295 295 294 295 295 292 292 290 290 289 289 290 290 289 289 289 290 290 291 290 290 290 290 290 290 290 291 292 292 292 293 295 295 295 294 293 291 290 288 290 288 288 287 285 286 287 288 288 292 292 295 295 296 299 300 299 299 298 299 301 301 301 300 298 297 295 293 292 292
298 293 286 285 285 286 286 286 287 288 286 284 283 285 286 283 285 285 287 287 286 286 285 287 288 286 288 288 289 291 292 293 292 291 290 289 289 288 287 287 287 286 287 288 288 289 289 289 289 289 289 289 289 289 288 288 289 289 287 288 288 288 289 288 286 284 285 283 286 284 284 284 284 287 287 288 287 289 290 292 293 294 296 295 295 295 295 297 297 297 296 295 294 291 290 287 287
289 284 286 288 284 284 280 282 284 287 284 283 282 282 284 282 282 285 286 283 286 287 287 287 285 287 288 287 288 288 289 289 289 289 288 287 287 286 285 286 286 286 286 287 287 287 288 288 288 288 288 288 288 288 288 288 287 287 286 285 285 287 286 285 284 284 283 282 282 283 284 283 283 285 286 286 285 288 287 289 289 290 291 291 290 290 291 292 292 293 293 291 290 288 284 285 285
288 289 285 282 285 282 282 282 283 284 284 282 282 281 281 280 282 284 284 282 285 287 287 287 287 285 285 285 286 286 287 286 287 286 286 285 285 285 284 284 284 284 285 285 286 286 287 287 287 288 288 288 288 288 288 287 287 286 285 285 284 283 283 283 283 283 283 282 282 282 282 283 282 283 284 284 284 283 283 284 285 285 285 287 286 283 286 287 287 287 288 287 285 284 283 283 284
286 283 281 284 283 281 282 283 283 283 284 283 282 282 281 280 279 283 284 284 281 280 280 285 286 285 283 284 284 285 285 285 285 285 284 283 283 284 284 284 284 284 284 285 285 284 285 285 285 285 286 287 287 288 287 287 286 285 284 284 283 283 282 282 282 282 282 282 281 281 282 282 282 282 282 282 282 282 281 281 281 280 281 281 283 281 281 281 282 281 282 282 282 282 281 282 282
282 280 280 279 280 280 282 282 282 283 283 282 281 283 281 281 279 278 279 284 284 283 281 281 282 283 283 283 283 283 283 283 283 283 283 283 282 282 283 283 284 284 285 283 283 284 284 284 284 284 284 284 285 286 287 288 286 285 284 283 282 282 282 281 281 281 281 282 281 281 281 281 281 281 281 281 281 281 280 280 279 279 279 280 281 279 280 280 280 280 280 280 280 281 280 281 281
281 280 280 281 281 281 281 281 280 281 280 280 279 280 280 278 277 278 277 278 278 279 280 281 282 282 283 283 283 282 282 282 282 282 282 282 282 282 282 283 282 282 283 283 284 284 283 283 283 283 283 283 283 284 285 286 286 286 285 284 282 281 281 281 281 281 281 281 281 281 280 280 281 281 280 280 280 280 279 279 278 279 279 278 279 279 279 279 279 279 279 279 279 279 279 280 280
283 279 281 280 281 280 280 280 281 280 281 279 280 282 279 279 279 278 276 277 278 279 280 281 282 282 282 281 281 281 281 281 281 282 282 282 282 282 282 281 282 282 282 282 282 283 283 282 283 283 282 282 282 283 283 283 284 285 285 284 282 282 281 280 280 280 280 280 281 280 280 280 280 280 280 279 279 279 279 278 278 278 278 278 278 278 278 278 278 278 278 278 278 278 277 279 279
281 279 281 281 281 281 281 281 280 280 279 280 280 278 276 278 278 277 276 277 278 279 280 280 281 281 281 280 280 280 280 280 280 281 281 281 282 282 281 282 282 282 281 281 282 282 283 283 282 282 282 281 281 282 281 282 282 283 283 282 282 282 279 280 280 280 280 280 280 280 280 279 280 280 279 279 279 278 278 278 278 277 277 277 277 277 277 277 277 277 277 277 278 277 277 278 278
281 281 281 281 280 281 282 281 280 280 280 281 280 277 278 278 279 277 277 278 278 278 279 279 280 280 279 279 279 280 280 280 280 280 281 281 281 280 280 281 281 281 281 281 281 281 282 282 282 281 281 281 281 281 281 281 281 281 282 281 281 281 279 279 279 279 279 279 279 279 280 279 279 279 279 279 278 278 277 278 277 277 276 277 276 276 277 276 276 276 276 276 277 276 276 276 277
283 282 282 281 281 281 281 280 280 281 280 279 279 278 279 279 279 279 278 278 279 278 278 278 278 279 279 279 279 279 279 279 280 280 280 280 280 280 280 281 280 280 281 280 281 282 283 281 281 282 282 282 281 280 280 280 281 280 281 280 280 279 279 279 279 279 279 279 279 279 279 280 279 279 279 278 278 277 277 277 277 277 276 276 276 276 276 276 276 275 276 275 276 275 275 276 276
283 282 282 281 281 281 281 280 280 281 281 280 281 279 278 279 279 279 277 278 278 277 277 277 277 278 278 278 278 279 279 279 280 279 279 279 280 280 280 280 280 280 280 280 280 280 280 280 281 281 281 281 281 281 281 280 280 280 280 280 279 279 279 278 278 278 279 278 279 279 278 278 279 278 279 279 278 277 277 276 276 276 276 276 276 275 275 276 275 275 276 275 276 275 275 275 276
283 285 281 280 280 281 282 280 281 280 280 281 280 280 280 278 278 277 277 278 278 277 277 277 277 277 278 278 278 278 279 279 279 279 279 280 280 280 279 280 280 280 280 280 280 280 279 279 280 280 280 280 279 279 279 279 280 280 280 280 280 279 278 278 277 277 277 278 278 279 278 278 278 278 278 279 278 277 277 276 276 276 276 275 276 275 275 275 275 275 275 275 275 274 275 275 275
283 282 281 280 282 279 282 281 280 281 281 279 280 278 278 279 277 277 278 277 277 277 277 277 277 277 277 278 278 278 278 278 278 279 279 279 279 280 279 279 280 279 280 280 280 279 280 281 280 280 280 279 279 279 279 279 280 280 280 280 279 278 277 278 277 277 278 277 277 278 278 278 277 277 278 278 278 277 277 276 276 275 275 275 275 275 274 275 274 274 274 274 274 274 273 274 273
280 281 281 278 278 278 281 281 280 281 281 281 282 277 277 278 278 278 277 277 277 276 277 277 277 277 277 277 277 278 278 278 278 279 279 279 279 279 279 279 280 279 281 279 279 280 280 279 280 279 281 280 280 280 279 279 279 279 279 279 279 278 277 277 276 276 276 277 276 277 278 277 276 276 277 278 278 277 276 276 275 275 276 275 275 275 274 274 274 273 274 273 273 273 273 273 273
279 281 276 278 277 279 279 282 279 280 281 279 282 277 279 279 279 278 277 277 277 276 277 276 276 277 277 277 277 277 278 278 278 278 278 278 278 279 279 279 279 279 279 278 279 279 278 279 280 278 279 278 278 278 277 278 278 279 280 279 278 278 277 277 276 276 276 276 276 276 277 277 276 276 276 277 277 277 276 276 275 276 275 275 275 274 275 274 273 273 273 273 272 272 273 272 273
278 277 271 275 276 278 279 280 278 280 279 280 280 279 278 279 278 277 277 277 276 276 276 276 276 276 277 277 277 277 277 278 278 278 278 278 278 278 278 278 278 279 278 278 278 277 277 278 279 277 277 277 277 277 277 278 277 277 278 277 277 277 276 276 276 276 276 276 275 275 276 277 275 275 276 276 277 277 276 276 275 275 275 274 274 274 274 274 273 272 273 273 272 271 272 271 271
279 277 274 276 276 277 276 279 279 279 280 280 279 279 278 277 277 277 276 277 276 276 276 276 276 276 277 277 277 277 277 277 277 278 278 278 279 278 278 280 278 279 278 278 278 277 277 278 277 277 277 277 277 277 277 277 277 277 278 279 278 276 276 276 276 276 275 275 275 275 275 276 275 275 275 276 277 278 276 276 275 275 275 274 274 273 273 273 273 272 272 273 272 272 271 270 270
275 277 275 277 276 277 276 277 279 279 279 278 277 278 279 279 277 277 276 276 276 276 276 277 276 276 277 276 277 277 277 277 278 279 279 278 278 278 278 279 279 278 278 278 277 277 277 277 278 279 277 277 277 277 277 277 276 276 276 276 276 275 276 275 275 275 275 275 275 275 275 275 276 275 275 275 277 277 275 275 275 275 274 273 273 273 272 273 272 272 271 271 272 272 271 271 270
277 278 277 276 276 277 276 277 278 279 277 279 277 279 279 279 277 277 276 276 275 276 277 276 276 276 277 276 277 277 277 277 279 279 278 278 278 278 278 278 279 278 278 277 277 277 277 276 279 278 277 276 276 277 278 277 276 276 275 275 276 276 275 276 275 275 275 275 275 275 274 274 275 275 275 275 276 276 275 275 274 274 274 273 272 272 272 272 271 270 271 271 271 271 271 271 271
278 277 276 276 276 276 277 278 278 278 278 277 277 276 276 277 277 277 276 276 275 275 275 276 276 276 276 276 277 277 277 277 280 279 279 279 278 278 279 278 278 277 277 276 277 276 276 277 278 277 276 276 276 276 275 275 275 275 274 274 275 275 275 275 274 274 274 275 275 274 274 274 274 275 274 275 275 276 275 275 274 273 274 273 272 272 271 271 271 271 270 271 270 269 269 271 270
278 277 276 275 275 277 277 278 278 278 278 276 275 275 277 278 278 277 276 275 274 275 275 276 276 276 276 277 277 277 278 279 279 278 278 278 278 278 278 278 278 276 277 276 276 276 276 276 276 276 276 275 275 275 276 275 276 276 275 275 274 275 276 275 274 274 274 274 274 274 274 274 274 274 274 275 275 275 275 274 273 272 273 273 272 272 271 272 270 270 270 269 271 269 268 270 269
276 276 275 275 277 276 278 277 278 278 278 277 275 276 278 280 278 277 276 276 277 277 277 277 276 276 276 277 277 277 278 278 278 278 279 278 278 278 278 278 277 277 277 277 276 276 276 276 276 276 276 276 276 275 276 275 275 276 274 275 274 274 276 276 275 275 275 274 273 274 274 273 273 273 274 274 274 274 273 273 272 272 272 272 271 271 270 270 270 269 269 269 268 269 269 270 269
277 277 277 274 276 275 274 276 276 277 276 276 276 275 278 280 278 277 278 277 277 277 277 277 277 277 277 277 277 277 277 278 278 278 278 278 278 278 278 277 277 277 277 277 276 276 276 276 276 276 276 276 276 276 277 276 276 276 275 275 274 275 275 276 275 275 274 273 272 273 273 273 273 273 273 274 273 273 273 273 273 272 271 272 271 270 270 269 269 269 269 269 268 266 268 267 270
276 274 273 273 275 275 275 276 276 276 278 276 276 275 276 276 277 277 278 279 278 278 277 277 277 278 278 279 278 278 278 278 278 278 278 278 278 278 278 278 278 277 277 277 277 276 276 276 276 276 276 275 276 276 277 276 276 275 275 275 275 274 275 275 273 273 272 273 273 272 272 273 273 273 273 273 273 272 272 272 272 272 271 271 271 270 270 269 269 269 269 268 267 267 266 267 267
274 275 277 277 276 275 274 275 276 274 274 275 275 271 269 273 274 276 277 276 276 278 277 277 277 277 277 277 277 278 279 279 279 279 279 279 279 279 279 278 278 277 277 277 278 277 277 277 277 277 276 276 276 276 277 275 276 274 273 272 271 271 271 272 271 271 272 272 273 273 272 273 272 272 272 272 273 272 271 272 271 271 271 271 271 270 270 269 269 268 269 268 267 268 267 266 266
270 275 276 275 275 275 275 276 275 266 268 274 275 272 269 274 276 276 276 276 277 278 277 278 279 278 278 277 278 278 278 278 279 279 279 279 279 279 279 278 278 278 278 278 278 278 278 278 278 277 277 276 276 276 277 276 275 274 273 272 273 272 272 272 273 273 273 273 273 273 272 272 272 272 272 271 272 272 271 271 271 271 271 270 271 270 269 269 269 268 269 268 268 268 267 265 266
273 273 274 274 275 274 274 274 273 271 275 276 275 272 267 270 277 274 273 274 276 277 278 277 278 279 279 279 279 279 279 279 279 279 279 279 280 279 279 280 279 279 279 279 278 278 278 278 278 277 277 278 276 276 276 276 274 274 273 272 273 273 273 273 272 272 273 273 272 272 272 272 272 272 271 271 271 271 271 271 271 271 270 270 270 270 269 270 269 269 269 268 268 268 267 266 265
274 275 276 277 277 275 274 273 272 273 272 271 272 276 270 266 274 274 275 276 277 277 278 279 279 279 280 280 280 280 280 280 280 279 279 279 279 280 280 280 280 280 279 279 278 278 278 278 278 278 277 277 277 276 276 275 275 274 273 273 272 274 273 274 274 274 273 274 272 272 271 271 271 271 271 271 271 271 272 271 271 270 270 270 271 270 270 269 269 268 268 268 267 267 268 267 266
276 276 276 275 275 275 275 271 273 268 270 264 268 274 267 271 274 275 274 275 276 278 280 281 281 281 281 280 281 281 281 281 281 280 280 280 280 281 281 281 281 280 280 280 280 279 279 278 278 278 277 277 277 276 276 275 275 275 273 273 272 273 274 273 273 273 273 272 272 272 271 271 271 271 271 271 270 271 271 272 271 270 270 270 270 270 269 269 268 268 268 267 267 267 267 267 266
276 275 275 272 271 272 271 270 268 264 260 266 271 272 272 268 274 275 275 276 277 278 278 279 281 281 281 282 282 282 281 281 281 281 281 281 281 281 281 280 281 281 280 280 279 279 279 278 278 278 278 278 278 276 276 275 275 275 274 273 273 272 273 273 272 271 272 271 271 271 271 271 271 270 271 270 270 270 270 271 270 270 270 270 270 269 269 269 268 268 268 268 267 267 266 267 267
276 275 272 273 271 269 270 265 265 262 260 265 267 270 271 265 272 272 276 276 274 277 277 279 279 280 281 282 282 282 282 282 282 281 281 281 281 281 280 280 280 281 280 280 279 279 279 278 278 277 278 278 277 277 276 275 275 274 274 274 273 273 273 272 272 271 271 270 271 270 271 270 270 270 270 270 270 270 270 270 270 270 270 270 269 269 269 269 269 268 268 267 267 267 267 266 266
273 271 270 266 259 259 262 257 263 259 262 268 268 269 269 271 275 278 276 277 277 276 279 280 280 280 280 280 282 282 282 282 282 281 281 281 280 280 280 280 280 280 280 280 280 279 279 279 278 277 277 278 277 277 276 275 275 274 274 274 274 273 273 273 272 272 272 271 270 270 270 269 269 269 269 269 269 269 269 269 269 269 269 269 269 269 269 268 268 268 267 267 267 266 266 266 265
273 271 263 259 254 251 254 253 256 258 265 267 267 269 269 272 275 278 279 281 282 281 280 280 280 281 282 281 280 280 281 281 282 282 281 281 281 281 281 281 281 281 281 281 280 280 279 279 278 277 277 278 278 277 276 275 275 275 274 274 274 274 273 272 272 272 272 271 271 270 270 269 269 269 269 269 269 269 269 269 269 269 269 269 269 268 268 268 268 267 267 267 266 266 266 266 265
273 270 271 263 256 260 258 249 261 262 262 265 265 263 263 266 273 275 276 277 276 275 275 276 277 278 279 279 279 279 279 280 281 282 282 282 282 282 281 281 281 281 281 281 281 280 280 279 278 278 277 278 278 277 276 276 275 275 275 275 274 274 273 273 272 272 272 271 271 270 270 270 269 269 269 269 269 269 269 269 269 268 268 268 268 268 268 268 267 267 267 267 267 266 266 266 265
273 271 271 267 262 265 265 253 255 254 258 263 260 266 267 274 275 277 278 276 276 277 277 277 277 278 278 278 279 279 280 280 280 281 281 282 282 282 282 282 282 282 282 281 281 281 280 279 279 279 278 278 278 278 277 276 276 276 275 274 274 274 274 273 272 273 272 272 271 270 270 270 270 270 269 269 269 268 268 268 268 268 268 268 268 267 267 267 267 266 266 266 265 266 265 265 265
270 272 265 268 270 268 258 262 263 264 257 263 257 267 271 272 278 277 272 275 277 276 276 276 277 277 278 278 279 280 280 280 280 280 281 281 282 282 282 282 282 282 282 281 281 281 281 280 280 279 279 279 278 278 277 276 276 276 275 275 274 274 273 272 272 271 272 271 271 270 270 270 269 269 269 269 268 268 268 268 268 268 267 267 267 267 267 267 267 266 266 265 265 266 265 265 265
268 263 267 272 273 270 267 263 255 250 257 263 262 265 270 267 271 271 274 273 276 275 275 275 276 276 277 279 280 280 280 280 280 280 281 281 282 282 282 282 282 282 282 282 282 282 282 281 281 280 279 278 278 278 277 277 276 275 275 275 274 273 273 272 272 271 271 271 270 270 270 269 269 269 269 268 268 268 267 268 267 267 267 267 267 267 267 266 266 266 266 265 265 266 265 265 265
276 271 271 272 262 264 263 259 257 256 256 256 261 260 263 267 271 273 276 274 275 274 274 274 277 276 277 278 279 280 280 280 280 280 280 280 281 281 282 282 283 283 283 283 283 282 282 281 281 281 280 280 279 279 278 278 277 276 275 275 274 273 273 272 272 272 271 270 270 269 269 269 269 269 268 268 268 267 267 267 267 267 267 266 267 266 266 266 266 265 265 265 265 265 264 264 264
274 275 273 270 267 257 260 263 257 259 257 255 261 256 270 271 270 269 276 274 274 275 275 276 278 278 277 278 279 280 280 280 280 280 281 281 281 282 282 282 282 282 282 283 283 282 282 282 281 281 281 280 280 279 278 277 277 276 275 275 274 273 273 272 271 271 270 270 270 269 269 268 268 269 268 268 268 267 267 266 267 266 266 266 266 266 266 266 265 265 265 265 265 264 264 264 264
269 269 264 268 261 266 264 260 262 264 251 252 253 261 267 276 274 275 276 277 277 276 277 277 277 278 277 277 278 279 279 280 280 281 281 281 281 282 282 282 282 282 282 282 282 282 282 282 281 281 280 280 279 279 278 277 277 276 275 274 273 273 272 272 271 270 270 269 269 269 269 269 269 268 268 267 267 267 267 267 266 266 266 266 266 265 266 265 265 265 265 264 264 264 263 263 264
270 270 266 269 261 263 263 266 258 253 260 259 250 265 270 277 274 276 276 277 277 277 276 277 277 277 277 276 277 277 278 280 280 281 281 281 281 281 282 282 282 281 282 282 282 282 282 282 282 282 281 280 279 279 278 278 277 276 275 274 274 273 272 271 270 270 269 269 269 269 269 268 268 268 268 267 267 267 267 267 266 266 266 266 266 266 265 265 264 264 264 264 264 264 263 263 263
Wind_Speed
4 4 3 2 2 3 2 2 2 2 1 1 3 1 1 1 4 3 5 6 3 3 4 8 9 5 2 6 13 10 4 4 2 1 4 4 2 2 5 7 7 8 8 5 6 6 9 14 18 19 18 19 19 20 21 22 21 20 19 21 20 20 21 21 19 21 21 21 23 23 22 21 21 19 20 19 20 19 19 18 19 20 20 20 20 21 20 20 20 21 20 22 21 22 22 22 22
3 4 5 2 2 2 2 1 3 1 3 2 3 1 1 1 2 3 4 3 4 7 5 11 12 16 19 17 11 7 13 9 2 1 4 4 5 4 4 8 7 9 6 5 5 6 7 12 17 17 18 19 21 21 23 22 20 20 20 22 21 20 21 20 21 20 20 21 20 21 20 20 20 20 20 20 19 19 19 19 19 20 20 20 20 20 20 21 21 20 22 21 22 22 23 22 22
5 6 3 2 3 2 2 2 2 1 2 2 2 3 3 4 4 4 5 7 12 12 8 10 10 7 5 3 12 8 4 5 7 4 6 5 8 3 4 7 6 8 9 4 5 3 0 12 19 18 19 19 20 21 22 21 22 23 23 23 22 21 20 19 18 18 19 19 19 19 19 19 19 18 19 18 19 19 19 19 19 19 19 19 19 19 20 20 20 20 21 22 22 24 21 21 21
3 5 2 1 1 2 2 2 3 5 3 3 1 3 4 3 5 8 8 9 12 9 4 3 7 7 3 15 4 8 6 3 4 2 4 3 3 3 0 4 7 9 6 5 5 1 5 14 17 19 20 21 19 19 20 21 22 23 23 22 21 20 19 18 17 16 17 17 17 19 19 19 18 19 19 18 19 19 19 19 20 19 19 20 20 19 19 20 20 20 21 22 23 21 21 22 22
3 3 5 2 3 2 2 1 3 2 1 3 3 2 5 5 7 9 5 3 4 2 1 5 7 3 9 9 3 3 2 3 5 5 3 3 2 1 2 4 7 9 7 5 4 3 10 17 18 17 19 19 20 19 20 20 19 19 19 20 20 19 16 15 16 16 16 17 17 17 18 18 18 18 18 19 18 18 19 19 19 19 20 19 19 19 19 20 20 20 20 20 22 21 21 21 21
5 4 6 4 1 1 2 2 2 2 0 1 2 2 3 2 6 7 7 8 5 8 3 5 5 6 6 6 3 3 2 3 1 5 3 2 3 3 2 4 10 7 8 7 6 8 11 15 17 19 17 18 19 18 19 19 20 19 18 17 17 15 16 16 16 16 16 16 17 17 17 18 18 18 17 18 18 20 20 19 18 20 19 20 20 19 20 21 20 20 20 20 21 21 21 21 21
1 5 5 4 2 2 3 2 3 2 3 4 2 2 5 4 6 10 8 7 5 11 9 8 11 10 9 2 4 4 3 3 2 3 3 4 5 6 5 8 6 12 10 6 6 9 12 15 17 19 20 19 20 19 18 18 18 18 17 17 16 16 16 15 14 14 15 16 16 17 17 19 19 19 18 18 19 20 22 21 21 20 20 20 19 20 21 20 20 21 22 22 22 20 20 20 20
1 2 2 3 0 1 1 1 2 1 2 5 3 2 5 6 5 5 3 3 3 3 6 3 2 9 5 2 5 4 8 6 9 8 8 8 7 9 9 5 9 13 12 11 11 8 6 18 18 18 19 19 18 18 18 18 18 17 16 16 16 17 17 16 15 15 15 18 19 19 18 19 19 19 19 19 19 20 19 20 20 20 20 19 19 20 20 19 20 21 19 20 20 20 20 20 20
6 5 2 3 2 2 2 1 0 1 3 3 4 1 4 3 1 4 7 4 5 5 6 3 2 7 3 7 6 3 6 7 11 12 11 9 9 10 8 9 10 12 13 11 10 9 9 18 20 18 18 19 20 19 19 19 17 16 16 16 17 17 16 17 18 19 20 19 19 19 18 18 18 19 18 19 19 19 19 19 20 19 20 20 20 20 20 20 20 19 19 19 20 20 20 20 20
2 1 1 1 3 1 0 1 2 1 3 3 6 7 7 6 7 8 10 11 9 11 9 7 5 12 11 10 6 4 2 4 12 13 10 9 9 11 11 11 12 14 11 11 9 10 11 16 21 20 20 19 20 18 17 16 17 18 17 17 17 17 17 17 17 18 18 18 18 17 18 18 18 18 18 18 18 18 18 18 19 19 19 19 20 20 20 20 20 20 19 20 20 20 20 21 20
1 2 2 2 2 1 2 1 1 1 2 3 3 6 6 5 6 7 5 8 1 4 3 5 14 14 7 5 4 3 7 8 13 11 8 6 11 13 10 11 12 12 12 13 10 11 10 12 19 22 18 19 19 17 17 17 17 16 17 17 17 17 17 17 17 18 18 18 17 17 18 18 18 17 18 18 18 18 18 18 18 18 18 19 19 19 19 19 19 19 19 19 20 20 21 21 21
1 0 1 3 2 4 3 4 3 3 1 4 3 7 5 6 1 5 2 8 4 8 7 3 7 12 11 5 3 6 8 11 11 9 6 7 11 11 10 9 13 12 11 12 12 10 9 9 10 16 22 22 20 19 18 17 17 17 17 17 17 17 17 17 18 18 18 18 18 18 18 18 18 18 17 18 18 18 18 18 18 18 18 18 18 18 18 18 18 19 19 19 19 19 20 20 20
2 2 4 2 1 1 1 4 5 3 2 3 2 5 5 7 7 5 6 7 5 8 8 9 13 1 6 4 4 6 11 6 6 8 5 7 9 9 10 11 12 13 11 11 13 11 10 9 9 10 14 19 20 20 18 19 17 18 17 18 17 18 18 18 18 18 18 18 18 18 18 17 17 17 17 18 18 18 18 17 17 18 18 17 18 18 18 18 18 18 18 18 19 19 19 20 20
3 5 4 2 2 3 3 1 2 3 0 2 2 3 6 3 5 4 3 9 6 6 2 7 2 7 9 7 5 5 5 2 4 6 6 8 9 10 12 10 12 12 11 11 12 10 10 10 9 8 10 10 10 12 18 18 18 18 18 18 18 18 18 18 18 18 18 18 18 17 17 17 17 17 17 17 18 18 17 17 17 17 17 18 18 18 18 18 18 18 18 18 19 19 19 19 19
3 2 3 4 1 2 1 3 8 5 2 3 2 4 3 5 1 6 8 7 5 2 4 4 0 2 6 9 6 5 7 5 6 6 8 9 12 12 12 10 12 11 10 12 10 10 10 10 9 9 10 9 10 8 6 13 18 18 18 18 18 18 19 18 18 18 18 17 17 17 16 17 17 17 17 17 18 18 17 17 18 17 17 18 18 18 17 17 18 18 18 18 18 19 19 19 19
3 4 2 2 1 1 2 2 1 5 2 5 6 8 11 10 7 2 5 2 5 3 4 2 7 1 5 4 10 11 9 8 6 4 8 10 10 11 10 10 9 10 9 9 9 9 8 10 8 9 9 9 9 8 9 9 14 17 18 18 18 18 18 18 18 17 17 16 16 16 16 12 13 13 16 13 16 17 18 16 18 17 18 18 18 18 18 17 18 18 18 18 18 18 18 18 18
2 3 0 3 2 2 2 3 7 4 4 7 3 4 4 5 4 9 7 7 9 6 9 6 4 5 8 7 11 12 10 7 8 6 9 6 6 7 6 6 6 8 7 9 8 7 8 9 9 8 9 10 9 8 8 9 11 14 13 16 17 18 17 17 16 16 14 14 13 13 11 10 8 8 9 10 13 12 16 17 17 18 18 18 18 18 18 18 18 18 18 18 18 18 17 15 16
1 2 3 1 3 4 0 3 4 0 11 7 3 2 12 9 4 1 3 13 11 9 12 7 12 12 8 6 6 6 5 6 5 6 8 6 4 6 6 5 5 7 6 6 7 6 7 7 9 9 8 9 8 7 6 6 7 10 9 8 9 11 13 12 12 10 11 8 12 9 8 7 7 7 8 9 9 11 13 18 17 18 18 18 18 18 17 18 18 18 18 18 17 17 16 7 8
2 2 2 4 4 1 1 4 6 7 5 7 4 5 5 4 2 1 7 3 5 13 8 8 11 9 9 8 6 6 5 4 5 5 10 8 5 9 6 5 6 5 6 5 5 6 6 7 7 9 9 8 9 8 7 7 8 7 8 8 8 11 11 12 9 10 9 9 8 8 7 7 7 8 9 10 8 13 13 16 16 17 17 17 17 16 17 17 17 17 17 16 15 14 8 7 7
0 2 1 1 2 2 5 4 3 3 12 11 10 4 8 3 1 2 8 9 4 11 10 7 8 9 6 4 4 4 5 6 5 6 9 8 7 7 8 7 6 5 5 4 5 5 5 6 7 7 7 7 7 7 6 6 6 6 6 7 7 7 7 7 9 8 8 8 7 7 7 7 7 6 9 11 9 7 8 12 14 13 14 14 16 10 12 14 15 15 15 14 10 7 7 7 7
1 6 2 1 1 1 8 6 5 7 5 11 8 6 8 4 3 2 14 12 3 2 4 2 10 9 5 3 4 2 5 7 7 6 9 8 7 5 5 5 5 5 4 4 5 5 6 6 6 7 6 6 7 6 7 6 6 6 6 6 6 6 6 6 6 7 7 7 7 6 6 6 6 6 6 6 6 6 6 6 7 7 7 8 12 8 7 8 8 8 8 9 8 8 8 8 8
6 4 2 4 1 5 2 6 6 6 5 10 6 8 6 2 5 6 2 5 7 7 2 2 3 4 6 6 3 2 5 7 7 6 7 8 9 8 6 5 5 5 5 5 5 5 5 5 6 6 7 7 6 5 6 7 6 6 6 6 6 5 6 6 5 6 6 6 6 6 5 5 6 5 6 6 6 6 6 6 6 6 7 7 8 7 7 7 7 7 7 8 7 7 7 7 7
6 3 4 7 3 6 2 4 4 3 4 6 5 3 5 4 5 3 5 3 1 1 2 0 2 2 2 3 4 5 5 7 6 7 7 8 8 7 7 5 5 6 4 5 4 4 5 5 5 5 7 7 8 6 6 5 6 6 6 5 5 5 5 5 5 5 6 6 6 5 5 5 5 5 6 6 7 6 6 6 6 6 7 7 7 7 7 7 6 6 6 7 6 7 7 6 7
10 4 2 8 7 8 3 4 5 6 7 6 4 6 7 4 8 2 4 1 2 1 1 3 3 2 2 4 3 4 5 6 6 5 3 4 6 7 6 7 5 4 5 5 4 4 4 5 5 6 6 6 6 5 7 6 5 5 6 6 5 6 5 5 5 5 5 6 6 5 6 5 5 5 6 6 6 6 6 6 6 6 6 6 6 6 6 6 6 6 6 6 6 6 7 6 6
6 5 1 3 7 5 6 7 9 10 10 6 6 10 4 1 5 4 2 1 2 3 3 4 4 3 3 3 4 4 5 4 5 4 4 3 4 5 5 4 5 5 7 5 4 4 4 4 5 7 6 7 6 5 7 5 5 5 5 5 5 5 5 5 5 5 5 5 6 6 6 5 5 5 6 5 5 6 5 6 5 6 6 6 6 6 6 6 6 6 6 6 6 6 6 6 6
3 5 6 6 7 6 5 10 8 8 5 4 11 7 2 3 2 4 2 1 0 1 5 3 4 4 3 3 3 4 4 4 4 5 4 3 3 6 5 4 4 6 5 5 5 4 4 4 6 7 6 6 5 6 5 5 5 5 4 5 5 5 5 5 5 5 4 4 5 5 5 5 5 5 5 4 5 5 5 5 5 5 6 5 5 6 6 5 6 5 6 6 5 6 6 6 6
11 12 9 10 5 5 5 5 3 3 4 4 7 1 1 2 1 2 3 4 3 4 4 2 3 5 3 3 3 2 3 4 4 3 4 3 4 5 5 4 5 5 5 6 4 4 4 5 5 5 6 7 5 6 5 5 5 5 5 4 4 4 4 4 4 4 4 4 5 5 5 5 5 4 4 4 4 4 4 4 5 4 5 5 5 5 5 5 5 5 6 6 5 6 5 6 5
11 16 13 10 7 8 2 2 0 2 3 4 9 5 1 1 1 4 7 5 5 6 4 3 4 4 3 3 3 2 3 2 2 3 6 8 6 6 6 6 6 5 6 6 4 4 5 5 5 5 5 6 6 6 6 5 5 5 5 4 4 4 4 4 4 4 4 4 4 4 4 4 4 4 4 3 4 4 4 4 4 4 5 4 5 5 5 5 5 5 5 5 4 5 4 5 5
11 2 9 1 3 5 8 3 3 1 1 4 1 5 1 1 6 1 6 5 6 6 5 4 5 4 4 4 3 3 4 3 3 4 5 4 3 3 5 4 5 6 3 5 5 5 6 5 5 5 4 6 6 7 5 5 4 4 4 4 4 4 4 4 4 4 4 4 4 4 4 4 4 3 3 3 4 3 3 4 4 4 4 4 4 5 5 4 5 5 5 5 5 5 5 5 4
2 6 6 4 1 3 7 2 4 3 0 4 2 3 5 7 4 5 4 6 5 5 6 6 5 5 4 5 5 4 3 3 5 6 5 5 4 5 5 5 5 4 5 4 5 6 5 3 4 4 5 6 6 5 5 5 4 4 4 4 4 4 4 4 4 3 4 3 4 4 4 4 3 3 3 3 2 3 3 3 4 3 3 3 3 4 4 4 5 6 5 5 6 6 6 6 6
4 2 5 3 5 2 3 2 6 3 2 2 0 4 5 5 6 7 6 7 8 8 7 7 6 6 6 5 5 5 5 5 6 6 6 5 5 4 5 4 5 5 4 5 6 6 6 5 4 3 4 4 5 5 5 5 4 4 4 4 4 4 4 4 3 3 3 3 3 3 4 4 3 3 3 2 2 2 3 3 3 3 3 3 4 4 4 4 5 6 6 6 5 6 5 6 6
3 2 1 1 2 1 2 2 5 2 0 1 1 4 7 6 7 9 7 7 8 9 8 8 7 7 7 6 6 6 7 5 6 6 6 6 6 6 6 7 6 5 6 6 5 4 5 4 4 4 4 5 4 5 4 4 4 4 4 4 4 4 4 4 3 3 3 3 3 3 4 4 3 3 3 2 2 2 2 3 2 3 3 3 4 4 4 5 5 5 6 6 7 7 7 7 6
3 2 0 2 2 1 2 0 2 1 2 2 3 6 5 6 4 8 7 9 8 8 9 8 8 8 7 6 6 6 6 8 7 8 8 7 6 6 6 6 6 6 5 6 6 5 5 5 5 5 6 6 5 4 4 4 4 4 4 4 4 4 4 4 3 3 3 3 2 3 2 3 3 3 3 2 1 2 2 2 2 3 3 3 4 4 4 4 5 5 6 6 6 6 7 8 7
2 4 2 2 3 1 2 1 1 5 2 3 2 3 7 2 4 6 7 9 8 9 10 8 8 7 7 7 7 7 7 8 10 9 10 8 6 7 6 5 6 6 5 5 5 5 6 5 5 5 4 4 4 5 4 4 4 4 4 4 5 4 4 3 3 3 3 3 2 2 2 2 2 2 2 2 2 2 2 2 2 2 2 3 3 3 4 4 4 5 5 5 6 6 6 8 8
5 2 2 2 1 4 3 3 1 6 4 3 2 5 13 9 4 6 8 7 9 11 9 9 9 9 8 8 8 9 9 10 11 9 9 8 8 8 7 6 6 6 5 6 5 5 4 5 5 6 6 5 5 4 4 4 4 4 3 4 4 4 3 3 3 3 3 3 3 3 3 2 2 2 2 2 2 2 2 2 2 2 2 2 2 2 3 3 4 4 5 5 5 5 6 6 7
3 8 5 5 6 5 4 3 1 5 5 2 6 9 8 8 7 6 7 8 10 9 7 8 9 8 8 8 8 9 10 12 8 8 8 7 7 7 7 6 6 6 6 5 6 5 6 5 5 4 5 5 4 4 4 4 3 3 4 3 3 3 3 3 2 3 3 3 3 3 3 2 2 2 2 2 2 1 1 2 2 2 2 2 2 2 2 2 3 4 5 5 5 4 5 4 6
3 5 5 2 4 3 3 2 2 2 1 7 6 6 7 13 10 9 7 5 8 10 12 12 9 8 9 9 10 10 12 12 8 10 9 10 10 8 7 6 7 7 7 7 7 7 7 7 6 8 6 5 5 5 4 5 4 4 2 4 4 5 4 4 3 3 3 3 3 3 3 2 2 2 2 1 1 1 1 2 2 2 1 1 1 1 2 2 3 3 3 4 4 5 5 4 6
3 6 5 3 0 3 1 0 3 3 1 3 2 6 12 14 8 8 7 7 15 15 13 13 12 10 9 11 12 13 11 6 8 8 9 9 8 9 8 7 7 9 9 8 9 9 8 7 8 7 5 6 6 6 5 5 4 4 4 5 4 6 6 6 4 4 4 4 4 4 4 3 3 3 2 2 2 1 2 2 2 2 1 1 1 1 1 2 3 3 3 3 3 4 4 5 5
5 4 4 2 1 3 2 1 3 4 2 7 5 7 12 13 9 8 14 16 13 10 12 13 11 12 11 11 12 11 10 11 9 11 9 10 11 11 9 8 8 9 9 9 9 8 8 8 8 7 6 7 7 7 6 6 5 3 3 3 5 4 3 4 4 4 5 5 5 5 4 4 4 3 3 3 2 2 3 2 3 2 2 1 1 1 2 1 1 2 3 3 4 4 2 4 5
6 2 0 1 1 1 2 1 3 4 2 4 5 10 13 14 7 11 13 13 11 9 11 12 11 13 14 14 11 11 13 11 14 12 12 10 10 10 9 10 9 8 9 9 9 10 7 8 8 8 8 8 7 8 7 6 4 4 1 2 2 2 3 4 3 4 5 5 6 5 5 5 5 4 4 3 3 3 3 3 3 3 2 2 2 1 1 0 1 2 2 2 4 5 4 3 5
3 3 3 3 1 2 1 2 3 1 0 1 6 8 9 6 7 6 7 10 9 12 10 11 12 13 12 9 11 13 15 13 13 12 12 11 12 13 12 10 8 11 10 11 10 10 8 11 10 10 9 9 8 9 8 6 4 4 2 2 2 1 1 4 4 5 6 6 5 6 6 6 5 5 5 4 4 4 3 3 4 3 2 2 2 2 2 2 1 1 1 1 3 5 5 3 4
1 0 0 2 1 5 1 2 1 4 2 3 6 8 5 4 6 10 4 4 11 11 11 15 15 13 10 13 15 12 13 13 14 14 14 13 13 12 12 12 13 11 12 12 10 10 10 10 10 10 8 8 9 9 9 7 7 7 7 6 6 6 6 7 9 9 8 8 8 6 5 6 6 5 5 5 5 4 4 4 4 4 3 3 3 2 2 2 2 1 1 0 2 3 3 4 3
1 1 1 3 6 6 5 1 1 2 1 1 3 1 10 6 8 8 4 7 14 5 12 16 14 12 12 14 14 13 14 12 12 12 11 13 15 13 14 14 14 13 14 9 10 11 12 11 10 11 10 9 9 9 10 8 8 8 10 9 8 8 8 7 6 5 6 6 5 6 6 6 7 7 6 6 6 5 4 4 5 4 4 4 3 3 3 3 2 1 1 1 2 2 3 3 4
0 1 6 6 6 5 4 5 3 2 1 1 3 2 2 11 8 2 2 5 10 11 13 14 13 16 16 16 16 15 14 15 13 14 14 14 14 15 17 17 13 15 11 10 11 10 13 13 12 12 10 10 9 9 11 10 10 9 10 10 8 8 9 7 8 6 5 5 6 7 6 6 7 7 7 7 7 6 5 5 5 5 5 5 4 4 4 3 3 2 2 3 2 3 3 4 4
1 1 5 3 4 5 6 4 3 1 1 5 4 1 1 6 10 1 1 5 8 13 15 16 17 18 17 18 18 18 18 17 15 12 15 17 17 18 17 15 16 13 13 13 12 12 12 12 13 11 12 11 10 12 12 12 11 11 10 9 9 8 7 5 4 5 6 6 7 6 6 6 6 7 7 7 7 7 6 6 6 6 5 5 5 4 4 5 5 4 4 4 4 3 3 4 4
1 1 4 5 5 5 4 3 1 2 2 5 2 1 1 10 6 1 3 3 11 13 14 14 15 17 16 16 17 17 15 13 14 18 17 17 18 18 17 15 15 17 16 14 13 11 12 10 13 14 14 11 11 12 12 13 13 11 11 11 12 9 7 5 5 6 6 6 7 7 6 6 6 6 7 8 7 8 7 7 7 7 6 6 5 5 5 6 5 5 5 5 5 5 4 4 5
4 2 5 4 6 3 3 5 2 3 0 6 4 5 1 5 9 7 3 7 9 7 6 7 7 8 12 14 16 15 15 15 15 17 18 18 16 15 13 17 19 16 14 14 13 12 12 12 12 15 16 10 11 13 14 15 13 13 12 12 13 12 10 9 7 7 7 7 8 8 7 7 6 7 6 7 8 8 8 8 7 7 6 6 6 6 6 6 6 5 5 6 6 6 5 5 6
2 0 1 2 1 7 2 3 5 1 5 4 4 3 1 3 10 6 9 4 5 6 7 9 9 9 11 11 12 14 14 14 15 14 16 17 14 14 14 18 19 18 15 15 15 13 12 13 12 15 14 14 12 12 13 14 12 14 13 13 14 13 11 9 11 10 10 10 9 8 7 6 7 7 7 6 7 8 7 7 8 8 7 7 7 6 6 6 6 5 6 6 6 7 6 6 6
2 2 4 3 4 6 2 6 2 1 3 1 2 2 3 11 17 11 7 11 9 9 9 11 10 11 10 10 11 10 9 11 12 14 15 13 15 17 17 20 18 16 18 20 18 15 12 12 14 15 17 15 13 13 15 15 14 14 14 14 14 11 12 12 11 10 10 9 8 8 8 7 6 6 7 7 8 9 7 7 7 7 7 7 7 7 6 7 6 6 6 7 7 7 6 7 6
1 1 2 3 2 3 1 5 2 6 4 3 0 0 5 8 12 12 18 20 12 8 11 11 12 14 14 11 6 7 8 10 12 13 13 14 15 16 18 18 17 16 18 18 18 14 12 12 14 15 18 14 13 13 15 15 16 15 14 14 13 11 12 12 11 10 10 8 8 9 9 8 7 8 7 8 7 8 7 8 8 8 8 7 7 7 7 7 7 7 7 7 8 7 7 8 8
0 1 1 4 6 1 2 2 2 4 6 4 4 1 8 1 6 2 9 7 5 5 5 7 10 11 11 8 8 9 10 10 10 11 14 15 16 16 15 15 15 16 17 17 15 15 13 13 14 16 16 15 15 15 13 16 14 15 14 13 12 11 12 11 10 10 9 10 9 9 8 7 8 7 8 7 7 8 8 7 8 8 7 7 7 7 6 7 7 7 7 8 7 7 7 7 8
1 1 2 5 2 5 2 3 2 2 5 8 2 6 4 6 4 11 10 8 10 7 10 8 13 9 7 9 11 12 11 11 9 11 13 15 15 14 13 13 15 15 16 15 16 15 13 15 15 17 18 17 15 15 14 14 14 12 13 13 14 13 10 9 8 9 9 10 9 9 9 8 8 7 7 7 7 8 8 8 8 8 8 8 7 8 7 7 7 7 7 7 8 6 7 9 8
1 1 1 2 1 7 5 3 3 1 3 8 1 11 7 7 15 7 6 1 6 5 7 6 11 8 6 10 12 11 11 11 10 11 13 15 13 12 13 15 14 14 14 16 18 18 19 17 15 16 16 15 14 15 14 13 13 12 14 14 12 12 13 14 12 13 12 9 9 9 8 8 8 7 7 7 7 7 7 8 8 8 8 8 8 8 8 8 8 7 7 8 8 7 8 9 8
5 0 3 1 2 4 3 2 1 4 2 8 3 7 14 7 13 2 3 6 7 6 8 8 9 6 8 12 12 12 12 11 9 11 12 13 12 13 14 14 15 16 17 17 19 17 16 17 17 16 15 15 15 14 14 13 14 14 13 14 14 14 13 12 11 11 10 9 9 8 7 7 8 7 7 6 7 8 8 8 8 8 8 8 8 8 8 8 8 7 8 8 8 8 8 8 8
2 2 2 0 1 1 4 2 2 1 3 5 8 6 9 7 12 4 8 4 6 6 6 7 10 7 9 11 13 13 10 8 10 11 11 12 13 14 14 16 16 16 16 16 16 14 13 15 16 16 18 18 16 13 12 10 10 9 9 12 13 12 11 11 10 9 9 10 10 9 9 9 7 8 7 7 7 7 7 7 7 8 7 8 8 8 8 8 8 8 8 8 8 8 8 8 8
3 1 2 0 3 2 1 3 3 4 5 3 9 6 12 5 9 5 11 7 6 9 8 9 10 10 8 8 10 11 10 9 10 10 11 12 13 14 14 14 15 16 15 15 15 11 14 16 15 16 16 15 13 12 14 12 12 11 10 9 10 11 11 11 11 11 10 11 10 10 9 9 9 7 8 8 8 8 8 8 7 8 8 8 8 8 8 8 8 9 8 8 8 9 10 10 9
1 1 1 1 1 2 3 1 3 3 4 3 2 9 9 15 7 7 13 9 10 9 11 9 9 10 8 9 9 10 10 10 10 10 11 12 12 12 12 12 12 11 10 11 11 14 15 13 14 16 16 17 14 14 12 11 10 11 12 12 12 11 13 10 10 11 11 10 9 9 9 8 7 8 8 8 8 8 8 8 9 8 9 8 9 8 8 8 9 9 9 9 9 9 10 10 9
6 9 7 8 5 1 1 9 2 1 3 5 4 14 11 17 8 7 9 9 9 10 9 10 10 10 10 9 9 9 10 11 11 11 10 10 11 11 11 9 9 9 12 13 13 12 13 14 15 15 15 15 16 13 12 12 11 9 12 12 12 10 9 9 11 11 11 10 9 9 9 7 9 8 8 8 9 7 8 8 8 9 9 9 9 9 9 8 9 10 10 7 8 10 10 11 10
Wind_Direction
353 7 35 62 47 59 78 10 196 304 66 258 296 229 87 29 140 102 105 165 79 28 14 60 45 35 66 94 111 96 71 65 316 226 129 134 85 114 104 90 96 89 81 72 75 76 85 88 85 83 84 80 76 76 72 68 66 67 68 67 66 64 59 55 51 52 51 52 51 52 50 51 51 52 49 47 48 47 47 45 44 43 42 38 37 36 34 32 31 31 28 30 30 32 37 33 33
8 6 53 33 48 74 182 113 92 337 34 28 236 215 313 346 99 38 130 114 91 136 119 84 80 82 94 112 116 113 43 21 344 94 101 76 101 61 61 91 85 99 92 73 89 95 102 95 94 93 86 82 78 73 71 69 69 69 67 66 67 63 60 59 58 58 58 56 57 56 55 53 50 50 50 46 44 46 46 44 43 41 40 38 37 35 34 33 28 32 29 29 30 32 36 31 34
11 21 68 36 31 85 100 31 272 81 112 247 284 213 325 76 54 50 26 98 120 135 136 105 92 61 72 166 54 15 91 343 21 54 91 139 104 23 40 88 123 97 79 77 88 90 180 91 81 79 78 77 77 74 74 75 72 67 64 64 64 63 63 63 65 66 65 63 60 59 56 54 54 52 51 50 47 46 44 44 42 39 38 37 37 36 35 34 31 30 31 31 30 32 32 31 31
7 28 116 74 194 28 68 33 86 136 157 202 292 14 27 68 79 83 72 101 131 146 157 62 46 328 107 67 52 67 49 8 360 350 98 40 72 148 298 131 101 82 87 70 84 97 51 85 86 84 87 82 80 79 76 73 70 66 63 63 63 64 60 61 64 62 65 65 61 57 54 52 50 50 48 47 46 45 44 43 41 40 37 36 39 37 35 34 31 31 32 31 33 29 29 31 31
62 347 31 100 104 360 104 139 133 92 135 206 99 9 37 67 116 106 83 70 25 306 87 134 96 360 71 82 7 72 104 285 10 41 69 63 36 111 184 128 88 82 67 48 10 72 90 96 92 95 93 90 82 79 74 71 70 69 68 68 66 64 64 66 66 62 58 58 58 58 56 54 51 47 47 46 45 44 44 42 40 40 38 35 38 38 36 34 31 32 33 34 33 30 28 31 31
53 40 351 50 84 191 54 94 78 129 70 293 82 66 34 52 122 119 113 86 64 46 28 70 131 162 65 46 17 48 339 72 288 50 63 49 46 321 51 54 78 74 68 60 67 71 80 86 97 91 88 84 86 80 77 74 71 73 70 68 71 71 67 56 55 58 61 59 56 53 54 53 55 51 48 46 45 41 40 41 38 38 38 35 36 38 37 35 32 31 31 35 33 32 28 28 29
110 44 1 29 25 64 149 132 183 148 29 330 62 326 353 352 149 126 139 106 37 63 18 89 112 120 87 107 67 26 317 280 352 41 49 85 54 39 31 55 75 80 53 36 55 85 107 109 92 90 87 89 89 85 80 75 70 69 65 70 71 67 66 66 63 63 60 61 60 58 55 56 54 53 49 44 43 43 41 39 39 37 37 35 34 39 40 34 33 33 31 31 32 29 29 27 28
334 109 326 99 113 39 95 167 104 192 39 54 48 8 330 309 217 134 110 84 353 58 352 56 93 94 69 271 118 23 45 50 71 61 59 59 48 53 53 48 71 72 66 55 44 21 73 96 100 96 91 90 84 81 77 75 76 73 71 68 67 67 67 64 66 66 64 58 62 57 55 55 53 51 48 46 44 44 45 41 40 38 37 35 34 37 39 35 36 38 32 30 30 29 29 29 28
18 76 241 72 95 38 62 94 62 8 94 22 20 12 339 295 18 137 69 84 122 57 29 283 221 72 146 93 69 94 50 50 63 56 56 58 54 65 63 52 73 75 71 62 54 43 40 81 82 89 89 86 87 85 80 76 73 72 73 69 66 65 68 66 64 64 61 58 55 54 53 52 53 51 47 45 44 41 43 41 41 41 39 38 38 37 37 36 36 35 31 29 28 27 28 28 28
30 36 274 115 125 190 360 253 115 54 97 105 45 5 353 342 61 62 114 83 96 92 46 52 123 113 137 99 108 48 19 38 79 53 37 60 70 62 50 55 59 76 68 68 57 57 53 67 86 88 86 83 83 80 80 79 74 74 70 72 71 69 65 62 60 57 58 58 59 56 54 53 51 50 48 46 43 44 44 44 44 42 40 40 39 37 37 36 34 35 29 28 27 25 24 25 25
169 15 131 107 41 130 201 264 233 33 37 338 64 7 7 352 65 74 49 109 250 97 175 36 78 115 117 88 62 66 60 55 75 68 44 49 71 67 59 52 55 69 76 71 65 63 51 56 74 85 86 88 84 80 80 77 78 79 76 69 71 71 72 71 69 67 64 61 60 57 54 52 50 49 47 46 44 44 43 43 44 43 39 40 39 39 35 34 32 32 31 28 27 25 24 23 23
46 43 35 94 169 163 212 164 156 155 353 30 43 20 340 10 18 63 355 97 75 66 46 311 128 128 89 111 98 60 56 58 74 87 68 58 64 68 66 62 62 58 64 77 73 60 56 58 57 68 75 76 79 83 83 82 83 81 79 80 78 77 75 73 70 67 63 60 57 54 51 50 48 47 47 46 46 42 42 43 42 42 41 40 40 38 36 35 32 32 31 29 28 27 25 23 22
124 122 91 97 223 160 174 109 175 114 2 44 332 359 337 48 50 94 86 79 29 89 42 3 129 27 117 112 104 64 75 43 58 88 85 72 77 68 66 66 67 63 58 69 72 66 61 58 53 55 64 70 81 84 82 82 84 85 84 82 80 76 72 69 66 63 61 58 56 54 51 49 49 47 46 46 45 43 40 42 42 42 40 40 39 39 37 36 35 35 33 31 29 28 26 24 22
127 181 132 200 48 115 134 170 97 146 293 157 20 334 20 69 39 16 158 66 13 71 41 323 358 115 96 123 100 79 84 25 95 87 86 78 80 76 71 66 64 64 58 65 72 71 68 63 65 61 62 61 52 64 80 85 84 82 80 77 75 72 69 67 64 61 59 57 55 52 50 47 49 47 46 47 45 44 40 38 41 42 40 40 38 38 37 35 34 35 33 32 31 30 27 25 23
191 152 80 110 54 91 235 141 190 165 195 92 353 40 40 19 57 50 50 94 63 345 289 21 360 273 182 161 147 145 149 134 121 114 90 85 80 71 69 69 69 63 60 62 66 68 71 72 70 66 65 64 66 61 43 76 78 77 76 73 71 68 66 64 62 60 58 56 55 53 49 48 46 47 43 45 44 43 42 37 38 42 41 40 38 37 37 36 35 33 33 32 32 32 30 27 25
131 87 75 140 180 146 220 110 352 117 194 127 151 130 73 40 14 39 7 325 125 32 11 26 5 38 88 100 119 137 144 152 133 116 97 86 81 74 67 66 69 68 60 55 63 61 69 76 74 73 71 70 72 72 67 59 67 72 71 70 68 67 65 63 60 57 57 55 53 53 53 49 44 43 44 41 41 42 42 40 37 39 41 40 38 35 35 35 34 34 33 32 32 32 32 30 26
59 76 133 44 207 167 222 143 150 211 134 163 259 283 90 85 57 85 56 45 83 48 64 23 46 32 64 97 119 131 141 145 140 129 95 82 85 73 65 59 66 63 61 55 54 61 66 73 74 78 74 78 77 75 67 68 66 62 60 63 64 64 63 64 62 58 52 52 52 51 52 48 43 42 41 40 40 39 42 40 39 39 40 39 38 35 33 33 33 33 32 32 31 31 31 30 28
63 145 122 163 186 169 282 186 181 143 144 177 64 91 132 134 232 330 17 44 78 79 74 78 65 58 72 64 69 91 114 145 178 134 94 90 91 91 76 59 65 70 60 64 55 57 70 69 77 79 80 75 79 77 76 66 66 65 60 60 61 58 57 56 56 55 55 52 49 48 46 46 40 43 44 39 40 38 39 41 39 38 38 38 37 35 33 33 31 31 32 32 31 29 27 26 23
85 124 102 221 187 151 335 292 282 143 149 118 114 40 94 107 95 304 91 23 74 88 73 91 81 76 71 53 52 86 105 102 104 102 108 107 96 105 106 99 84 89 77 74 67 62 67 79 75 81 81 81 81 79 76 75 71 70 65 61 60 58 58 55 55 53 50 50 46 47 47 44 40 43 44 45 46 42 42 41 40 38 37 38 35 34 33 33 31 30 30 32 31 28 27 25 21
48 132 125 276 191 133 24 326 290 352 134 124 113 61 80 340 136 325 116 125 77 115 132 107 111 126 111 68 74 88 95 94 83 95 99 105 99 111 118 114 107 94 93 85 89 71 67 75 77 79 82 82 86 84 81 79 75 74 70 65 64 64 59 59 57 56 55 53 51 52 52 49 46 49 45 45 46 43 40 39 39 39 36 36 34 33 30 28 30 29 28 28 29 28 24 22 18
344 66 139 161 180 55 349 14 27 76 94 114 106 144 84 20 7 102 141 104 15 254 320 178 150 143 136 121 113 94 106 99 94 90 106 104 97 89 99 108 114 110 102 96 80 68 65 74 85 78 78 79 84 88 89 82 83 79 73 69 69 67 67 64 62 58 58 57 55 60 55 57 54 53 48 44 43 42 39 35 31 31 29 30 28 32 27 20 22 20 20 23 25 21 20 19 16
80 100 310 279 339 74 341 23 38 78 76 102 112 106 124 176 35 25 299 154 180 174 136 331 80 137 148 148 128 111 113 112 110 114 115 122 126 123 117 110 94 98 110 91 84 82 67 70 78 89 82 78 77 83 84 88 83 81 79 76 77 70 69 69 64 63 59 55 59 59 62 59 57 56 50 47 46 40 41 38 33 32 30 30 26 27 26 23 22 21 21 22 20 22 19 17 19
87 12 13 13 303 132 315 10 349 51 97 74 87 120 87 73 107 20 44 77 95 347 233 37 65 48 78 113 130 127 124 122 126 128 133 131 129 129 127 123 126 118 107 97 95 88 81 79 82 88 88 87 81 84 84 86 82 88 88 85 82 75 71 72 69 65 63 61 59 62 59 58 57 57 52 49 46 40 43 38 36 32 31 31 26 29 25 25 23 22 21 20 17 19 17 15 19
93 128 53 28 33 69 16 70 56 69 89 78 107 101 83 137 86 337 63 10 20 45 99 88 76 69 74 132 116 134 131 129 128 110 108 118 127 129 134 129 123 117 107 108 97 93 93 83 88 96 94 93 94 89 89 83 80 82 85 85 80 80 79 75 73 71 69 62 59 60 61 59 58 58 55 52 49 47 48 42 42 39 37 35 28 32 26 24 23 22 20 17 17 16 14 11 18
92 102 159 123 56 58 68 80 81 86 73 99 78 68 13 52 124 102 50 346 5 42 68 78 76 89 92 112 129 138 125 115 116 101 87 82 100 107 102 115 124 130 121 117 114 103 90 97 94 90 92 91 89 90 87 88 90 86 90 89 84 89 81 79 80 77 69 65 61 61 61 61 63 62 59 55 55 55 50 47 45 45 41 37 31 33 30 21 25 21 18 14 17 13 10 11 11
89 98 97 93 85 81 72 79 68 68 109 76 69 65 44 124 141 67 161 7 304 76 77 70 108 118 128 135 148 153 150 138 121 127 131 120 124 126 129 139 140 133 128 124 119 106 99 92 92 93 94 93 94 93 94 97 95 98 94 93 97 91 87 89 84 77 73 69 63 55 60 66 60 62 64 60 60 59 56 53 53 48 44 41 35 34 30 26 22 20 18 15 14 13 11 7 7
115 110 107 100 133 95 22 89 81 106 57 334 107 197 320 304 137 228 207 220 149 94 84 67 135 152 159 161 163 164 163 165 159 127 127 132 151 153 149 145 147 139 135 128 126 118 110 101 94 101 106 108 106 104 106 105 109 105 105 104 101 99 101 97 89 87 78 72 68 61 60 61 64 59 64 63 62 62 58 55 52 48 49 40 39 38 32 30 26 27 19 13 15 10 9 2 6
106 119 93 76 76 74 56 42 322 337 18 45 113 139 231 317 167 224 159 178 148 140 145 148 159 192 191 189 200 204 186 220 178 166 177 175 178 174 170 166 160 153 148 145 137 133 122 117 114 115 120 125 123 117 117 118 119 118 120 120 114 116 113 103 98 92 88 79 75 72 69 62 65 66 63 69 69 63 63 58 55 48 46 41 39 36 36 30 30 27 27 18 16 13 4 2 10
142 98 92 289 336 40 23 14 322 60 180 198 145 100 267 329 222 98 153 135 128 153 170 190 194 215 214 219 223 235 199 233 220 205 210 215 195 192 179 180 166 154 160 149 150 143 141 142 134 132 129 129 129 125 123 122 124 126 129 126 126 123 113 107 99 99 92 88 80 73 70 70 60 60 67 61 68 75 70 66 58 55 48 42 43 40 37 33 25 23 28 16 16 9 8 3 6
82 32 111 87 39 27 346 325 337 101 329 136 336 259 241 234 209 165 174 142 125 148 194 201 214 206 223 224 225 240 247 232 221 217 211 217 211 199 193 183 182 174 159 163 153 156 155 159 147 142 143 137 132 131 127 129 131 130 126 128 125 125 111 107 107 102 98 90 85 76 74 70 62 57 54 70 73 74 76 71 65 58 52 46 46 38 35 31 27 21 19 17 13 8 9 359 358
94 197 52 96 124 234 351 59 308 101 324 315 303 226 284 261 207 185 185 158 162 189 201 212 213 216 217 227 226 232 248 233 229 225 230 221 217 211 200 202 184 186 168 174 175 167 161 164 162 151 143 132 127 129 133 129 132 125 129 126 124 120 114 109 108 107 95 90 87 75 69 69 59 52 43 52 68 72 69 70 67 59 51 47 44 39 37 31 32 22 15 12 6 6 9 358 358
28 81 313 340 147 280 305 48 35 162 260 35 158 295 245 254 212 178 169 173 170 205 208 214 216 217 221 225 231 236 240 240 243 242 233 226 212 208 203 206 189 193 190 181 175 169 171 177 157 151 145 140 142 138 135 127 126 123 123 123 116 116 111 104 99 97 95 88 79 76 65 65 52 41 37 31 53 73 68 66 66 60 50 46 42 38 36 31 25 23 18 16 3 2 359 355 354
4 80 222 223 43 238 333 146 100 307 275 349 168 246 338 288 208 166 173 170 185 207 221 218 221 224 224 225 230 233 243 247 242 233 230 218 217 208 207 207 203 197 188 191 183 173 176 176 162 164 163 157 149 143 134 128 118 116 113 119 120 117 110 109 106 105 100 94 84 80 78 76 56 46 42 35 55 97 83 79 73 65 53 45 40 39 38 32 27 19 15 18 14 354 354 350 348
280 28 151 214 162 167 261 315 78 360 136 243 34 230 235 237 305 195 184 183 185 219 225 225 223 224 224 228 227 231 232 233 232 221 221 212 214 211 210 210 206 200 204 198 197 187 178 174 172 174 172 168 159 155 146 132 125 114 115 125 129 121 122 126 129 122 117 115 114 102 100 100 82 66 58 51 71 124 111 101 103 91 71 57 53 41 42 37 32 20 12 12 10 1 356 351 346
209 175 80 268 301 208 227 193 310 19 28 219 333 258 266 257 293 224 203 194 199 224 221 226 226 223 226 224 226 229 230 230 231 222 214 211 213 213 207 210 203 203 206 198 199 201 189 183 182 181 171 174 167 151 141 128 116 102 99 110 124 133 132 139 143 134 131 131 125 131 127 126 113 87 76 65 87 117 131 137 121 125 95 79 63 53 45 45 36 26 13 6 10 16 353 348 343
201 185 181 147 158 217 217 243 298 44 336 288 227 238 268 279 251 231 214 201 212 233 239 243 236 233 231 231 231 228 229 236 229 221 215 213 212 209 208 205 208 204 202 200 203 204 200 197 194 187 182 178 160 152 145 137 135 142 137 138 149 166 159 154 164 146 144 145 147 148 140 134 127 105 84 80 85 124 135 147 123 134 115 91 64 53 41 44 37 23 17 7 357 1 353 351 345
98 85 100 156 181 292 287 305 301 288 311 249 242 283 279 273 243 225 204 192 238 233 231 232 230 227 228 231 230 230 231 232 215 216 212 211 212 210 206 202 207 206 209 204 206 207 205 198 185 195 190 182 177 166 169 163 157 146 167 189 186 181 179 170 167 165 171 162 163 162 159 154 138 137 106 97 82 113 139 141 137 121 133 96 66 82 74 65 49 20 20 2 355 354 350 357 347
111 108 110 158 89 238 230 75 357 325 85 296 48 298 270 261 255 209 170 184 230 216 222 230 226 225 230 227 231 229 235 244 224 221 213 214 215 212 206 205 200 205 211 205 206 207 204 202 204 198 187 193 195 190 179 183 187 185 173 188 177 179 182 184 186 186 184 178 176 177 171 166 165 157 143 137 126 127 143 156 154 146 126 159 110 134 71 60 48 28 359 355 357 358 346 353 357
38 111 133 98 275 241 277 43 14 343 65 273 15 327 283 277 248 193 194 205 226 218 215 226 213 223 227 225 229 234 231 233 223 228 217 213 211 212 208 210 213 213 211 206 208 207 206 207 210 205 198 196 201 197 193 196 200 195 185 175 176 170 198 189 178 185 184 182 185 185 177 173 172 169 171 155 141 153 154 162 172 155 162 162 171 170 128 34 84 25 13 357 340 345 341 347 17
87 91 62 215 292 81 286 335 16 6 73 304 337 315 283 273 238 215 211 205 230 217 221 230 216 226 223 221 216 221 228 227 226 219 220 212 210 211 211 211 210 206 212 208 207 209 207 211 208 205 205 202 203 204 205 207 201 174 136 131 141 152 183 180 179 180 188 183 191 186 189 179 179 174 171 174 163 166 171 177 176 181 174 167 185 222 206 149 140 11 15 9 350 337 344 346 5
23 103 116 110 220 228 176 283 319 297 129 106 296 268 282 265 275 257 224 218 241 233 219 234 234 234 237 244 236 225 226 220 226 220 220 212 209 212 210 209 205 213 209 210 204 205 204 209 206 205 205 205 206 203 204 186 180 162 154 112 115 187 200 169 179 204 201 202 199 195 195 185 183 179 178 182 176 176 180 184 186 190 184 194 189 215 232 192 187 60 360 5 4 334 326 331 339
331 265 193 235 180 134 298 317 39 3 330 33 24 348 301 283 253 254 246 153 222 228 213 230 231 229 224 232 235 231 233 228 225 222 216 213 215 214 213 210 212 214 213 211 205 208 206 209 206 206 208 209 207 205 198 184 191 178 172 176 184 196 201 187 199 199 194 202 207 195 191 189 188 185 190 184 191 183 189 191 191 192 200 201 210 212 202 198 197 210 310 193 323 309 310 312 310
78 258 191 206 148 127 145 180 63 356 210 309 17 69 280 286 266 255 218 213 240 218 218 239 237 229 221 229 232 227 225 226 228 230 221 215 219 214 213 212 212 213 217 197 208 209 208 213 207 205 206 209 203 200 194 189 194 192 193 194 191 192 197 209 201 191 186 193 187 191 194 190 194 194 196 195 192 200 191 196 197 202 208 209 226 195 212 218 221 214 247 242 290 286 297 285 297
292 169 128 115 117 127 171 110 120 205 291 340 36 99 227 308 297 280 32 251 258 260 243 240 237 233 228 228 230 228 225 223 220 222 221 222 219 213 216 214 209 216 208 203 211 206 209 210 205 206 207 209 199 195 195 197 195 195 198 204 207 213 213 203 186 188 179 173 184 193 192 197 195 201 201 198 199 200 200 199 198 204 205 211 223 214 213 229 208 216 230 244 249 266 261 274 279
220 221 197 204 166 170 133 103 136 171 17 297 340 288 355 254 259 199 56 309 268 257 248 241 235 233 232 231 231 229 227 223 218 221 219 218 217 217 219 216 217 213 210 208 208 206 208 208 209 207 212 207 200 196 198 199 203 197 198 201 212 218 214 215 184 186 178 182 185 191 198 201 198 202 204 202 201 200 209 206 202 204 206 213 225 221 221 215 221 227 240 248 244 251 256 256 265
275 132 88 62 69 70 113 114 99 337 46 282 282 241 207 282 270 338 4 239 271 256 250 243 235 231 228 230 234 231 229 226 221 224 226 223 221 221 219 222 221 217 215 212 213 209 212 205 210 209 214 205 201 197 199 201 204 199 203 207 212 215 201 202 193 193 190 183 197 198 199 203 205 204 207 208 206 204 210 212 207 208 211 213 224 224 220 222 219 224 229 231 246 243 251 249 255
116 98 75 32 37 30 20 64 88 56 36 257 251 301 157 296 274 209 155 228 202 245 287 268 259 245 234 230 231 229 224 222 220 222 225 226 222 221 213 217 222 218 215 210 213 211 208 207 207 212 215 207 200 200 197 204 201 202 207 205 208 210 200 192 194 204 195 192 200 202 200 206 204 209 205 208 207 207 207 212 213 210 214 215 222 221 219 220 223 227 230 231 235 240 250 253 260
113 66 115 99 347 1 30 339 32 91 279 255 254 221 195 191 288 258 243 268 216 196 241 272 275 253 243 233 231 228 224 222 224 223 229 226 222 219 212 222 222 218 212 212 214 211 208 209 207 215 217 213 201 202 199 207 200 206 210 206 209 209 195 193 200 201 195 198 197 202 202 199 207 209 208 206 208 206 205 210 211 212 212 215 218 221 221 221 222 225 228 230 234 240 245 248 255
58 46 23 65 287 26 319 16 340 206 203 214 333 178 337 237 237 266 276 255 252 210 228 244 255 266 252 246 239 237 232 228 223 224 227 222 219 219 213 222 221 216 214 214 213 210 208 208 207 211 219 211 205 200 203 203 203 207 205 207 211 202 202 200 203 203 197 197 195 198 195 199 197 205 208 204 210 203 202 208 208 208 212 214 216 217 218 215 214 225 225 230 236 236 240 248 253
128 157 119 70 32 34 272 278 222 295 295 277 33 199 259 275 292 247 248 258 257 242 231 243 250 257 263 257 248 250 238 227 228 228 228 225 222 222 218 222 219 220 219 217 215 209 207 208 208 210 223 211 207 201 205 204 208 208 205 208 207 199 205 201 203 201 200 197 192 197 196 195 195 204 201 205 204 203 204 208 207 210 212 212 210 213 216 212 211 220 226 230 234 236 240 244 246
173 133 128 185 142 170 283 218 283 257 248 276 288 51 232 43 247 264 230 258 295 242 262 260 259 258 267 283 270 256 251 239 229 230 230 229 229 224 223 223 224 223 222 219 217 214 208 210 209 212 221 215 206 206 202 207 209 209 208 208 206 200 205 201 203 200 196 194 195 196 197 195 197 202 202 204 197 201 206 205 207 208 210 211 211 212 212 214 213 219 222 229 235 234 239 237 245
174 185 99 72 235 134 208 209 163 298 339 330 239 210 189 212 258 292 255 259 270 257 264 258 268 258 266 275 261 253 248 244 228 234 237 238 234 230 226 226 226 226 225 222 219 216 210 214 212 213 216 216 208 209 206 206 210 205 204 205 206 203 201 201 201 201 201 194 192 191 196 194 199 198 201 195 199 195 202 205 206 211 209 212 210 211 213 213 213 215 223 224 227 230 228 236 241
248 90 198 208 147 102 93 87 59 74 49 262 183 303 265 292 288 278 338 346 275 304 277 264 264 268 250 260 260 254 248 243 232 229 234 237 237 234 228 228 229 226 226 222 220 215 212 213 213 214 217 217 211 211 207 205 207 204 207 206 202 201 201 201 200 197 196 190 189 194 193 196 192 195 196 192 195 197 202 203 206 209 210 210 213 212 212 216 214 216 222 224 226 226 231 232 237
78 31 228 130 143 118 129 260 355 65 163 267 29 267 302 56 296 335 337 343 291 296 275 269 278 275 264 257 259 255 248 244 243 239 242 244 242 237 233 232 229 226 224 225 225 222 219 220 219 217 217 216 215 210 208 205 203 205 206 205 205 202 201 202 197 196 190 185 192 193 191 191 196 193 190 191 192 195 202 202 208 209 211 211 213 214 213 217 213 222 220 226 224 226 231 235 231
211 195 189 120 290 321 333 87 320 306 277 276 298 288 263 222 257 309 280 251 274 275 288 303 293 278 251 266 269 268 264 263 248 242 240 242 238 236 234 232 231 231 230 229 230 224 222 224 225 222 223 219 216 210 211 211 204 208 206 207 202 200 200 200 199 192 184 189 191 191 190 194 189 190 192 192 192 198 201 205 206 212 210 215 213 216 215 219 216 222 222 224 224 223 231 233 230
36 81 45 335 108 180 128 198 181 121 275 38 287 17 279 190 218 185 272 254 255 270 284 277 270 277 269 259 264 271 277 262 259 254 248 245 243 242 241 240 239 233 231 230 231 227 225 226 223 225 230 229 223 213 211 207 203 203 205 199 200 199 198 197 191 186 189 192 191 187 188 191 194 186 197 193 194 198 202 204 207 210 214 213 215 215 217 219 219 223 221 226 220 221 231 235 235
352 57 323 13 19 219 104 360 153 198 192 191 255 310 262 263 177 204 251 258 254 246 261 262 269 274 268 256 258 269 268 268 259 252 252 249 249 249 245 243 247 250 245 241 232 227 228 225 226 225 223 223 219 217 207 211 200 204 203 200 197 192 197 191 188 191 192 191 189 187 188 190 176 194 190 194 197 201 203 205 208 210 213 214 215 217 215 220 221 225 223 220 224 221 228 234 236
168 167 199 171 123 135 274 267 37 91 129 233 134 262 271 271 115 212 231 245 244 253 240 258 267 271 272 274 263 251 263 263 258 259 253 258 256 253 251 245 242 240 241 236 233 231 231 227 226 227 224 226 224 218 208 206 202 197 199 201 198 192 188 184 190 187 194 190 189 187 184 177 188 195 186 194 198 199 202 207 209 214 216 216 219 220 218 219 222 225 225 217 219 224 228 233 233